STARLINK-2706, 48481

Orbit data source: Space-Track

STARLINK-2706, 48481 is a payload satellite owned by SpaceX/Seattle (US) in LEO that was launched on Sun, 09 May 2021 UTC via an FALCON 9 launch vehicle from the Air Force Eastern Test Range (AFETR). Payload-class satellites include a variety of spacecraft equipped with specific instruments for various scientific and technological missions. These include communications satellites like Starlink; space stations such as the ISS; scientific satellites like the Hubble; Earth observation satellites from companies like Planet Labs, Umbra, and HawkEye 360; GPS; miniature CubeSats for education and research; and military/defense satellites.

Loading next visibility...
Identifier
48481, 2021-040BF
Orbit
LEO
Country
Flag of USUS
Related business
Manufacturer
SpaceX/Seattle
Mission
Operational Commercial Communications
Bus & Motor
STARLINK, Unknown motor
Mass
260 kg wet, ~248 kg dry
Launch date (UTC)
2021-05-09 (5 years ago)
Launch vehicle
FALCON 9
Launch site
Air Force Eastern Test Range (AFETR)
Object type
Payload
Rocket body
Debris
Shape & HBR
Box + 1 Pan, 10.1 m
Radar Cross Section
13.562 m², Large (>1 m²)

Expand to show TLE details & history
Last TLE update: 2 days ago

TLE from 2 days ago
0 STARLINK-2706
1 48481U 21040BF  26171.20788889 -.00000891  00000-0 -16969-4 0  9994
2 48481  53.1603  76.5568 0001135  84.6139 275.4992 15.31691683282174
Epoch: 2026-06-20T04:59Z
TLE epoch observation values (Epoch: 2026-06-20T04:59:21.600Z)
Latitude
0.00001°
Longitude
93.29099°
Altitude
471.591 km
Speed
7.632 km/s
True Right ascension
05h 06m 13s
True Declination
0° 00' 00"
Sunlit
Object was in daylight at epoch
Visualization orbit readout
Latitude
Unknown
Longitude
Unknown
Altitude
Unknown
Speed
Unknown
Apparent Right ascension
Unknown
Apparent Declination
Unknown
Sunlit
N/A
Visualization observer readout
Local Sidereal Time
21:23:20
Azimuth
Unknown
Elevation
Unknown
Doppler factor
Unknown
Orbital elements
Apogee altitude
471.799 km
Perigee altitude
470.244 km
Semi-major axis
6,849.158 km
Eccentricity
0.00011
Inclination
53.1603°
RAAN
76.5568°
Arg. of periapsis
84.6139°
True anomaly
275.48625°
Mean anomaly
275.4992°
Eccentric anomaly
275.49273°
Mean motion
3.82902 °/min
Orbital period
94.02 mins
BSTAR
-0.000016969
Loading maneuver chart data...
Computing Atmospheric mass density...

Documentation

Showing up to 5 results
|